Private Wetterstation Sandau
Wetterdaten: Donnerstag, 18.10.2012
Datum Zeit Temp. A. Feuchte A. Luftdruck Regen Wind Richtung Richtung Taupunkt Windchill
18.10.2012 00:01 12,4 C 79 % 1012,6 hPa 0,0 l/m 3,6 km/h (1 Bft) S-SO 157 8,9 C 12,4 C
18.10.2012 00:06 12,4 C 79 % 1012,5 hPa 0,0 l/m 3,6 km/h (1 Bft) SO 135 8,9 C 12,4 C
18.10.2012 00:11 12,4 C 79 % 1012,4 hPa 0,0 l/m 2,2 km/h (1 Bft) S 180 8,9 C 12,4 C
18.10.2012 00:16 12,4 C 79 % 1012,7 hPa 0,0 l/m 2,2 km/h (1 Bft) SW 225 8,9 C 12,4 C
18.10.2012 00:21 12,4 C 79 % 1012,7 hPa 0,0 l/m 0,0 km/h (0 Bft) S-SO 157 8,9 C 12,4 C
18.10.2012 00:26 12,4 C 79 % 1012,8 hPa 0,0 l/m 0,0 km/h (0 Bft) SW 225 8,9 C 12,4 C
18.10.2012 00:31 12,3 C 79 % 1012,8 hPa 0,0 l/m 0,0 km/h (0 Bft) S-SO 157 8,8 C 12,3 C
18.10.2012 00:36 12,3 C 79 % 1012,8 hPa 0,0 l/m 6,1 km/h (2 Bft) SW 225 8,8 C 12,3 C
18.10.2012 00:41 12,3 C 79 % 1012,9 hPa 0,0 l/m 5,0 km/h (1 Bft) S-SO 157 8,8 C 12,3 C
18.10.2012 00:46 12,2 C 79 % 1012,9 hPa 0,0 l/m 0,0 km/h (0 Bft) SW 225 8,7 C 12,2 C
18.10.2012 00:51 12,2 C 80 % 1012,9 hPa 0,0 l/m 1,4 km/h (1 Bft) S-SW 202 8,9 C 12,2 C
18.10.2012 00:56 12,2 C 80 % 1013,0 hPa 0,0 l/m 2,5 km/h (1 Bft) S 180 8,9 C 12,2 C
18.10.2012 01:01 12,1 C 80 % 1012,7 hPa 0,0 l/m 11,2 km/h (2 Bft) S-SO 157 8,8 C 12,1 C
18.10.2012 01:06 12,1 C 80 % 1012,9 hPa 0,0 l/m 0,0 km/h (0 Bft) S-SW 202 8,8 C 12,1 C
18.10.2012 01:11 12,2 C 80 % 1012,8 hPa 0,0 l/m 5,0 km/h (1 Bft) S-SO 157 8,9 C 12,2 C
18.10.2012 01:16 12,2 C 80 % 1012,7 hPa 0,0 l/m 0,0 km/h (0 Bft) S-SO 157 8,9 C 12,2 C
18.10.2012 01:21 12,3 C 80 % 1012,6 hPa 0,0 l/m 7,2 km/h (2 Bft) S-SO 157 8,9 C 12,3 C
18.10.2012 01:26 12,3 C 80 % 1012,7 hPa 0,0 l/m 3,2 km/h (1 Bft) S-SW 202 8,9 C 12,3 C
18.10.2012 01:31 12,4 C 79 % 1012,8 hPa 0,0 l/m 4,0 km/h (1 Bft) S 180 8,9 C 12,4 C
18.10.2012 01:36 12,5 C 79 % 1012,9 hPa 0,0 l/m 5,8 km/h (2 Bft) S-SW 202 9,0 C 12,5 C
18.10.2012 01:41 12,5 C 79 % 1012,9 hPa 0,0 l/m 4,7 km/h (1 Bft) S 180 9,0 C 12,5 C
18.10.2012 01:46 12,6 C 79 % 1013,1 hPa 0,0 l/m 5,0 km/h (1 Bft) S-SW 202 9,1 C 12,6 C
18.10.2012 01:51 12,6 C 79 % 1013,2 hPa 0,0 l/m 5,0 km/h (1 Bft) S-SW 202 9,1 C 12,6 C
18.10.2012 01:56 12,6 C 79 % 1013,1 hPa 0,0 l/m 2,9 km/h (1 Bft) S-SW 202 9,1 C 12,6 C
18.10.2012 02:01 12,6 C 79 % 1013,1 hPa 0,0 l/m 2,5 km/h (1 Bft) S 180 9,1 C 12,6 C
18.10.2012 02:06 12,5 C 79 % 1013,1 hPa 0,0 l/m 2,9 km/h (1 Bft) SO 135 9,0 C 12,5 C
18.10.2012 02:11 12,5 C 79 % 1013,1 hPa 0,0 l/m 1,8 km/h (1 Bft) S-SW 202 9,0 C 12,5 C
18.10.2012 02:16 12,4 C 79 % 1013,0 hPa 0,0 l/m 2,5 km/h (1 Bft) S 180 8,9 C 12,4 C
18.10.2012 02:21 12,4 C 79 % 1012,8 hPa 0,0 l/m 5,4 km/h (1 Bft) S-SO 157 8,9 C 12,4 C
18.10.2012 02:26 12,4 C 79 % 1012,7 hPa 0,0 l/m 5,0 km/h (1 Bft) S-SO 157 8,9 C 12,4 C
18.10.2012 02:31 12,4 C 79 % 1012,7 hPa 0,0 l/m 4,0 km/h (1 Bft) S-SW 202 8,9 C 12,4 C
18.10.2012 02:36 12,5 C 79 % 1012,6 hPa 0,0 l/m 3,2 km/h (1 Bft) S 180 9,0 C 12,5 C
18.10.2012 02:41 12,5 C 79 % 1012,5 hPa 0,0 l/m 4,7 km/h (1 Bft) SO 135 9,0 C 12,5 C
18.10.2012 02:46 12,5 C 78 % 1012,5 hPa 0,0 l/m 4,0 km/h (1 Bft) S-SO 157 8,8 C 12,5 C
18.10.2012 02:51 12,5 C 78 % 1012,5 hPa 0,0 l/m 3,2 km/h (1 Bft) S-SO 157 8,8 C 12,5 C
18.10.2012 02:56 12,5 C 78 % 1012,5 hPa 0,0 l/m 5,0 km/h (1 Bft) S 180 8,8 C 12,5 C
18.10.2012 03:01 12,5 C 78 % 1012,6 hPa 0,0 l/m 2,5 km/h (1 Bft) S-SO 157 8,8 C 12,5 C
18.10.2012 03:06 12,5 C 78 % 1012,7 hPa 0,0 l/m 5,4 km/h (1 Bft) SO 135 8,8 C 12,5 C
18.10.2012 03:11 12,4 C 78 % 1012,7 hPa 0,0 l/m 3,2 km/h (1 Bft) S-SO 157 8,7 C 12,4 C
18.10.2012 03:16 12,4 C 78 % 1012,7 hPa 0,0 l/m 6,5 km/h (2 Bft) S-SW 202 8,7 C 12,4 C
18.10.2012 03:21 12,4 C 78 % 1012,8 hPa 0,0 l/m 9,4 km/h (2 Bft) S-SO 157 8,7 C 12,4 C
18.10.2012 03:26 12,4 C 78 % 1012,7 hPa 0,0 l/m 5,4 km/h (1 Bft) SW 225 8,7 C 12,4 C
18.10.2012 03:31 12,4 C 78 % 1012,7 hPa 0,0 l/m 7,9 km/h (2 Bft) SO 135 8,7 C 12,4 C
18.10.2012 03:36 12,4 C 78 % 1012,7 hPa 0,0 l/m 3,2 km/h (1 Bft) S-SO 157 8,7 C 12,4 C
18.10.2012 03:41 12,3 C 78 % 1012,7 hPa 0,0 l/m 4,7 km/h (1 Bft) S-SO 157 8,6 C 12,3 C
18.10.2012 03:46 12,3 C 78 % 1012,8 hPa 0,0 l/m 3,2 km/h (1 Bft) S-SO 157 8,6 C 12,3 C
18.10.2012 03:51 12,3 C 78 % 1012,7 hPa 0,0 l/m 0,0 km/h (0 Bft) S 180 8,6 C 12,3 C
18.10.2012 03:56 12,2 C 78 % 1012,7 hPa 0,0 l/m 5,4 km/h (1 Bft) S-SO 157 8,5 C 12,2 C
18.10.2012 04:01 12,2 C 78 % 1012,6 hPa 0,0 l/m 4,7 km/h (1 Bft) S 180 8,5 C 12,2 C
18.10.2012 04:06 12,1 C 78 % 1012,5 hPa 0,0 l/m 5,0 km/h (1 Bft) SO 135 8,4 C 12,1 C
18.10.2012 04:11 12,1 C 78 % 1012,6 hPa 0,0 l/m 5,8 km/h (2 Bft) S-SO 157 8,4 C 12,1 C
18.10.2012 04:16 11,9 C 78 % 1012,4 hPa 0,0 l/m 4,0 km/h (1 Bft) O-SO 112 8,2 C 11,9 C
18.10.2012 04:21 11,9 C 78 % 1012,6 hPa 0,0 l/m 2,9 km/h (1 Bft) SO 135 8,2 C 11,9 C
18.10.2012 04:26 11,9 C 78 % 1012,6 hPa 0,0 l/m 2,2 km/h (1 Bft) S 180 8,2 C 11,9 C
18.10.2012 04:31 11,8 C 78 % 1012,7 hPa 0,0 l/m 2,9 km/h (1 Bft) S 180 8,1 C 11,8 C
18.10.2012 04:36 11,6 C 78 % 1012,7 hPa 0,0 l/m 4,0 km/h (1 Bft) S-SO 157 7,9 C 11,6 C
18.10.2012 04:41 11,6 C 78 % 1012,7 hPa 0,0 l/m 4,0 km/h (1 Bft) S-SO 157 7,9 C 11,6 C
18.10.2012 04:46 11,5 C 79 % 1012,5 hPa 0,0 l/m 8,6 km/h (2 Bft) SO 135 8,0 C 11,5 C
18.10.2012 04:51 11,5 C 79 % 1012,4 hPa 0,0 l/m 4,7 km/h (1 Bft) SO 135 8,0 C 11,5 C
18.10.2012 04:56 11,4 C 79 % 1012,7 hPa 0,0 l/m 5,8 km/h (2 Bft) S-SW 202 7,9 C 11,4 C
18.10.2012 05:01 11,4 C 79 % 1012,6 hPa 0,0 l/m 4,0 km/h (1 Bft) S-SW 202 7,9 C 11,4 C
18.10.2012 05:06 11,3 C 79 % 1012,5 hPa 0,0 l/m 4,0 km/h (1 Bft) S-SO 157 7,8 C 11,3 C
18.10.2012 05:11 11,3 C 79 % 1012,7 hPa 0,0 l/m 2,5 km/h (1 Bft) S-SO 157 7,8 C 11,3 C
18.10.2012 05:16 11,3 C 79 % 1012,7 hPa 0,0 l/m 3,6 km/h (1 Bft) SO 135 7,8 C 11,3 C
18.10.2012 05:21 11,2 C 79 % 1012,6 hPa 0,0 l/m 2,9 km/h (1 Bft) SO 135 7,7 C 11,2 C
18.10.2012 05:26 11,2 C 79 % 1012,4 hPa 0,0 l/m 6,5 km/h (2 Bft) S-SW 202 7,7 C 11,2 C
18.10.2012 05:31 11,1 C 79 % 1012,5 hPa 0,0 l/m 4,3 km/h (1 Bft) S-SW 202 7,6 C 11,1 C
18.10.2012 05:36 11,1 C 79 % 1012,5 hPa 0,0 l/m 3,2 km/h (1 Bft) SO 135 7,6 C 11,1 C
18.10.2012 05:41 11,1 C 79 % 1012,4 hPa 0,0 l/m 4,0 km/h (1 Bft) SO 135 7,6 C 11,1 C
18.10.2012 05:46 11,0 C 79 % 1012,4 hPa 0,0 l/m 5,4 km/h (1 Bft) S-SO 157 7,5 C 11,0 C
18.10.2012 05:51 11,0 C 79 % 1012,2 hPa 0,0 l/m 8,6 km/h (2 Bft) S-SO 157 7,5 C 11,0 C
18.10.2012 05:56 11,0 C 79 % 1012,2 hPa 0,0 l/m 3,2 km/h (1 Bft) O-SO 112 7,5 C 11,0 C
18.10.2012 06:01 11,1 C 79 % 1012,3 hPa 0,0 l/m 6,5 km/h (2 Bft) SO 135 7,6 C 11,1 C
18.10.2012 06:06 11,1 C 79 % 1012,3 hPa 0,0 l/m 4,0 km/h (1 Bft) S 180 7,6 C 11,1 C
18.10.2012 06:11 11,2 C 79 % 1012,3 hPa 0,0 l/m 4,3 km/h (1 Bft) SO 135 7,7 C 11,2 C
18.10.2012 06:16 11,1 C 79 % 1012,4 hPa 0,0 l/m 4,0 km/h (1 Bft) S-SO 157 7,6 C 11,1 C
18.10.2012 06:21 11,2 C 79 % 1012,6 hPa 0,0 l/m 8,6 km/h (2 Bft) S 180 7,7 C 11,2 C
18.10.2012 06:26 11,2 C 79 % 1012,5 hPa 0,0 l/m 6,1 km/h (2 Bft) S-SO 157 7,7 C 11,2 C
18.10.2012 06:31 11,2 C 79 % 1012,5 hPa 0,0 l/m 11,5 km/h (2 Bft) S 180 7,7 C 11,2 C
18.10.2012 06:36 11,2 C 79 % 1012,7 hPa 0,0 l/m 4,7 km/h (1 Bft) S 180 7,7 C 11,2 C
18.10.2012 06:41 11,2 C 79 % 1012,6 hPa 0,0 l/m 4,0 km/h (1 Bft) S-SO 157 7,7 C 11,2 C
18.10.2012 06:46 11,2 C 79 % 1012,5 hPa 0,0 l/m 6,1 km/h (2 Bft) S 180 7,7 C 11,2 C
18.10.2012 06:51 11,2 C 79 % 1012,6 hPa 0,0 l/m 3,2 km/h (1 Bft) S-SO 157 7,7 C 11,2 C
18.10.2012 06:56 11,2 C 79 % 1012,8 hPa 0,0 l/m 6,1 km/h (2 Bft) S-SW 202 7,7 C 11,2 C
18.10.2012 07:01 11,2 C 79 % 1012,7 hPa 0,0 l/m 1,4 km/h (1 Bft) S-SW 202 7,7 C 11,2 C
18.10.2012 07:06 11,1 C 79 % 1012,7 hPa 0,0 l/m 3,6 km/h (1 Bft) S 180 7,6 C 11,1 C
18.10.2012 07:11 11,1 C 79 % 1012,7 hPa 0,0 l/m 4,7 km/h (1 Bft) S-SW 202 7,6 C 11,1 C
18.10.2012 07:16 10,9 C 79 % 1012,7 hPa 0,0 l/m 0,0 km/h (0 Bft) S-SW 202 7,4 C 10,9 C
18.10.2012 07:21 10,9 C 79 % 1012,8 hPa 0,0 l/m 2,5 km/h (1 Bft) S 180 7,4 C 10,9 C
18.10.2012 07:26 10,8 C 79 % 1012,8 hPa 0,0 l/m 2,9 km/h (1 Bft) S-SO 157 7,3 C 10,8 C
18.10.2012 07:31 10,7 C 79 % 1012,7 hPa 0,0 l/m 2,2 km/h (1 Bft) S-SO 157 7,2 C 10,7 C
18.10.2012 07:36 10,6 C 79 % 1013,0 hPa 0,0 l/m 5,0 km/h (1 Bft) SO 135 7,1 C 10,6 C
18.10.2012 07:41 10,5 C 80 % 1013,1 hPa 0,0 l/m 0,0 km/h (0 Bft) S-SO 157 7,2 C 10,5 C
18.10.2012 07:46 10,4 C 80 % 1013,0 hPa 0,0 l/m 2,5 km/h (1 Bft) S-SO 157 7,1 C 10,4 C
18.10.2012 07:51 10,4 C 80 % 1013,4 hPa 0,0 l/m 2,5 km/h (1 Bft) S-SO 157 7,1 C 10,4 C
18.10.2012 07:56 10,4 C 80 % 1013,1 hPa 0,0 l/m 4,7 km/h (1 Bft) S-SO 157 7,1 C 10,4 C
18.10.2012 08:01 10,4 C 80 % 1013,1 hPa 0,0 l/m 3,6 km/h (1 Bft) S-SO 157 7,1 C 10,4 C
18.10.2012 08:06 10,4 C 81 % 1013,2 hPa 0,0 l/m 4,7 km/h (1 Bft) SO 135 7,3 C 10,4 C
18.10.2012 08:11 10,4 C 81 % 1013,4 hPa 0,0 l/m 6,1 km/h (2 Bft) S 180 7,3 C 10,4 C
18.10.2012 08:16 10,4 C 81 % 1013,3 hPa 0,0 l/m 2,5 km/h (1 Bft) SO 135 7,3 C 10,4 C
18.10.2012 08:21 10,6 C 81 % 1013,4 hPa 0,0 l/m 4,7 km/h (1 Bft) S 180 7,5 C 10,6 C
18.10.2012 08:26 10,7 C 81 % 1013,4 hPa 0,0 l/m 10,4 km/h (2 Bft) S-SW 202 7,6 C 10,7 C
18.10.2012 08:31 10,9 C 81 % 1013,5 hPa 0,0 l/m 3,2 km/h (1 Bft) S-SO 157 7,8 C 10,9 C
18.10.2012 08:36 11,1 C 81 % 1013,3 hPa 0,0 l/m 6,5 km/h (2 Bft) S-SO 157 8,0 C 11,1 C
18.10.2012 08:41 11,3 C 80 % 1013,5 hPa 0,0 l/m 4,7 km/h (1 Bft) SO 135 8,0 C 11,3 C
18.10.2012 08:46 11,5 C 80 % 1013,4 hPa 0,0 l/m 0,0 km/h (0 Bft) S-SO 157 8,2 C 11,5 C
18.10.2012 08:51 11,8 C 80 % 1013,3 hPa 0,0 l/m 4,3 km/h (1 Bft) S 180 8,5 C 11,8 C
18.10.2012 08:56 12,1 C 79 % 1013,2 hPa 0,0 l/m 7,6 km/h (2 Bft) S-SO 157 8,6 C 12,1 C
18.10.2012 09:01 12,3 C 79 % 1013,4 hPa 0,0 l/m 9,0 km/h (2 Bft) S-SO 157 8,8 C 12,3 C
18.10.2012 09:06 12,4 C 78 % 1013,4 hPa 0,0 l/m 5,4 km/h (1 Bft) S-SO 157 8,7 C 12,4 C
18.10.2012 09:11 12,6 C 77 % 1013,4 hPa 0,0 l/m 7,2 km/h (2 Bft) S 180 8,7 C 12,6 C
18.10.2012 09:16 12,8 C 77 % 1013,5 hPa 0,0 l/m 6,8 km/h (2 Bft) SO 135 8,9 C 12,8 C
18.10.2012 09:21 12,9 C 76 % 1013,6 hPa 0,0 l/m 7,2 km/h (2 Bft) S-SW 202 8,8 C 12,9 C
18.10.2012 09:26 12,9 C 76 % 1013,7 hPa 0,0 l/m 6,1 km/h (2 Bft) S-SW 202 8,8 C 12,9 C
18.10.2012 09:31 13,1 C 76 % 1013,6 hPa 0,0 l/m 6,5 km/h (2 Bft) S 180 9,0 C 13,1 C
18.10.2012 09:36 13,2 C 75 % 1013,7 hPa 0,0 l/m 5,0 km/h (1 Bft) S-SO 157 8,9 C 13,2 C
18.10.2012 09:41 13,3 C 75 % 1013,7 hPa 0,0 l/m 9,4 km/h (2 Bft) O-SO 112 9,0 C 13,3 C
18.10.2012 09:46 13,4 C 75 % 1013,7 hPa 0,0 l/m 6,8 km/h (2 Bft) SW 225 9,1 C 13,4 C
18.10.2012 09:51 13,6 C 74 % 1013,6 hPa 0,0 l/m 7,6 km/h (2 Bft) S-SO 157 9,1 C 13,6 C
18.10.2012 09:56 13,6 C 74 % 1013,7 hPa 0,0 l/m 5,0 km/h (1 Bft) SO 135 9,1 C 13,6 C
18.10.2012 10:01 13,8 C 74 % 1013,5 hPa 0,0 l/m 6,5 km/h (2 Bft) SO 135 9,2 C 13,8 C
18.10.2012 10:06 13,9 C 74 % 1013,5 hPa 0,0 l/m 3,6 km/h (1 Bft) S 180 9,3 C 13,9 C
18.10.2012 10:11 14,1 C 73 % 1013,5 hPa 0,0 l/m 6,1 km/h (2 Bft) SO 135 9,3 C 14,1 C
18.10.2012 10:16 14,1 C 73 % 1013,5 hPa 0,0 l/m 3,6 km/h (1 Bft) S-SO 157 9,3 C 14,1 C
18.10.2012 10:21 14,4 C 73 % 1013,7 hPa 0,0 l/m 3,2 km/h (1 Bft) S 180 9,6 C 14,4 C
18.10.2012 10:26 14,5 C 72 % 1013,6 hPa 0,0 l/m 14,8 km/h (3 Bft) S-SO 157 9,5 C 14,5 C
18.10.2012 10:31 14,6 C 72 % 1013,6 hPa 0,0 l/m 6,1 km/h (2 Bft) O 90 9,6 C 14,6 C
18.10.2012 10:36 14,8 C 72 % 1013,6 hPa 0,0 l/m 6,5 km/h (2 Bft) S 180 9,8 C 14,8 C
18.10.2012 10:41 14,9 C 71 % 1013,8 hPa 0,0 l/m 7,6 km/h (2 Bft) S-SO 157 9,7 C 14,9 C
18.10.2012 10:46 15,0 C 71 % 1013,8 hPa 0,0 l/m 9,0 km/h (2 Bft) S-SO 157 9,8 C 15,0 C
18.10.2012 10:51 15,2 C 70 % 1013,7 hPa 0,0 l/m 8,6 km/h (2 Bft) S-SO 157 9,8 C 15,2 C
18.10.2012 10:56 15,3 C 70 % 1013,6 hPa 0,0 l/m 3,6 km/h (1 Bft) S-SW 202 9,9 C 15,3 C
18.10.2012 11:01 15,5 C 70 % 1013,5 hPa 0,0 l/m 6,5 km/h (2 Bft) S 180 10,1 C 15,5 C
18.10.2012 11:06 15,6 C 70 % 1013,5 hPa 0,0 l/m 7,6 km/h (2 Bft) S 180 10,1 C 15,6 C
18.10.2012 11:11 15,8 C 69 % 1013,6 hPa 0,0 l/m 4,0 km/h (1 Bft) S-SO 157 10,1 C 15,8 C
18.10.2012 11:16 16,1 C 68 % 1013,6 hPa 0,0 l/m 15,5 km/h (3 Bft) S 180 10,2 C 16,1 C
18.10.2012 11:21 16,1 C 68 % 1013,5 hPa 0,0 l/m 2,9 km/h (1 Bft) S-SW 202 10,2 C 16,1 C
18.10.2012 11:26 16,3 C 68 % 1013,5 hPa 0,0 l/m 10,8 km/h (2 Bft) S-SO 157 10,4 C 16,3 C
18.10.2012 11:31 16,4 C 67 % 1013,4 hPa 0,0 l/m 13,7 km/h (3 Bft) S-SO 157 10,3 C 16,4 C
18.10.2012 11:36 16,6 C 67 % 1013,4 hPa 0,0 l/m 15,5 km/h (3 Bft) S-SO 157 10,4 C 16,6 C
18.10.2012 11:41 16,8 C 67 % 1013,4 hPa 0,0 l/m 4,0 km/h (1 Bft) S-SO 157 10,6 C 16,8 C
18.10.2012 11:46 16,9 C 66 % 1013,5 hPa 0,0 l/m 8,6 km/h (2 Bft) S 180 10,5 C 16,9 C
18.10.2012 11:51 17,1 C 66 % 1013,5 hPa 0,0 l/m 8,3 km/h (2 Bft) S-SW 202 10,7 C 17,1 C
18.10.2012 11:56 17,3 C 66 % 1013,4 hPa 0,0 l/m 9,4 km/h (2 Bft) S-SW 202 10,9 C 17,3 C
18.10.2012 12:01 17,6 C 65 % 1013,4 hPa 0,0 l/m 2,5 km/h (1 Bft) S-SO 157 10,9 C 17,6 C
18.10.2012 12:06 17,8 C 64 % 1013,4 hPa 0,0 l/m 10,8 km/h (2 Bft) SO 135 10,9 C 17,8 C
18.10.2012 12:11 17,9 C 63 % 1013,4 hPa 0,0 l/m 6,1 km/h (2 Bft) SO 135 10,8 C 17,9 C
18.10.2012 12:16 18,1 C 62 % 1013,4 hPa 0,0 l/m 11,9 km/h (2 Bft) S-SO 157 10,7 C 18,1 C
18.10.2012 12:21 18,2 C 62 % 1013,5 hPa 0,0 l/m 6,1 km/h (2 Bft) S-SW 202 10,8 C 18,2 C
18.10.2012 12:26 18,2 C 62 % 1013,5 hPa 0,0 l/m 5,8 km/h (2 Bft) S-SW 202 10,8 C 18,2 C
18.10.2012 12:31 18,3 C 62 % 1013,5 hPa 0,0 l/m 6,8 km/h (2 Bft) S-SO 157 10,9 C 18,3 C
18.10.2012 12:36 18,4 C 62 % 1013,5 hPa 0,0 l/m 7,9 km/h (2 Bft) S 180 11,0 C 18,4 C
18.10.2012 12:41 18,4 C 62 % 1013,5 hPa 0,0 l/m 6,5 km/h (2 Bft) S-SO 157 11,0 C 18,4 C
18.10.2012 12:46 18,5 C 61 % 1013,4 hPa 0,0 l/m 8,3 km/h (2 Bft) SO 135 10,8 C 18,5 C
18.10.2012 12:51 18,4 C 60 % 1013,4 hPa 0,0 l/m 14,8 km/h (3 Bft) S-SW 202 10,5 C 18,4 C
18.10.2012 12:56 18,4 C 60 % 1013,4 hPa 0,0 l/m 6,8 km/h (2 Bft) O-SO 112 10,5 C 18,4 C
18.10.2012 13:01 18,5 C 61 % 1013,5 hPa 0,0 l/m 8,3 km/h (2 Bft) S-SO 157 10,8 C 18,5 C
18.10.2012 13:06 18,5 C 61 % 1013,5 hPa 0,0 l/m 12,2 km/h (2 Bft) S 180 10,8 C 18,5 C
18.10.2012 13:11 18,6 C 61 % 1013,4 hPa 0,0 l/m 6,1 km/h (2 Bft) S-SW 202 10,9 C 18,6 C
18.10.2012 13:16 18,7 C 60 % 1013,5 hPa 0,0 l/m 8,3 km/h (2 Bft) SO 135 10,8 C 18,7 C
18.10.2012 13:21 18,8 C 61 % 1013,5 hPa 0,0 l/m 13,7 km/h (3 Bft) S 180 11,1 C 18,8 C
18.10.2012 13:26 18,8 C 60 % 1013,4 hPa 0,0 l/m 8,6 km/h (2 Bft) SW 225 10,9 C 18,8 C
18.10.2012 13:31 18,9 C 60 % 1013,4 hPa 0,0 l/m 8,6 km/h (2 Bft) S 180 11,0 C 18,9 C
18.10.2012 13:36 18,9 C 60 % 1013,2 hPa 0,0 l/m 10,8 km/h (2 Bft) S-SO 157 11,0 C 18,9 C
18.10.2012 13:41 18,9 C 60 % 1013,0 hPa 0,0 l/m 9,4 km/h (2 Bft) S-SW 202 11,0 C 18,9 C
18.10.2012 13:46 19,1 C 58 % 1013,2 hPa 0,0 l/m 15,8 km/h (3 Bft) S-SW 202 10,6 C 19,1 C
18.10.2012 13:51 19,1 C 58 % 1013,2 hPa 0,0 l/m 8,6 km/h (2 Bft) S-SO 157 10,6 C 19,1 C
18.10.2012 13:56 19,2 C 58 % 1013,2 hPa 0,0 l/m 6,8 km/h (2 Bft) S 180 10,7 C 19,2 C
18.10.2012 14:01 19,3 C 59 % 1013,0 hPa 0,0 l/m 5,0 km/h (1 Bft) S 180 11,1 C 19,3 C
18.10.2012 14:06 19,4 C 58 % 1012,9 hPa 0,0 l/m 9,0 km/h (2 Bft) S-SW 202 10,9 C 19,4 C
18.10.2012 14:11 19,5 C 58 % 1012,9 hPa 0,0 l/m 5,4 km/h (1 Bft) S-SO 157 11,0 C 19,5 C
18.10.2012 14:16 19,6 C 58 % 1012,9 hPa 0,0 l/m 11,2 km/h (2 Bft) S 180 11,1 C 19,6 C
18.10.2012 14:21 19,8 C 58 % 1012,9 hPa 0,0 l/m 1,8 km/h (1 Bft) O-SO 112 11,3 C 19,8 C
18.10.2012 14:26 19,8 C 57 % 1012,8 hPa 0,0 l/m 3,2 km/h (1 Bft) SO 135 11,0 C 19,8 C
18.10.2012 14:31 19,8 C 57 % 1012,7 hPa 0,0 l/m 5,8 km/h (2 Bft) S 180 11,0 C 19,8 C
18.10.2012 14:36 19,9 C 56 % 1012,8 hPa 0,0 l/m 7,2 km/h (2 Bft) S-SW 202 10,9 C 19,9 C
18.10.2012 14:41 19,9 C 56 % 1012,8 hPa 0,0 l/m 8,3 km/h (2 Bft) S 180 10,9 C 19,9 C
18.10.2012 14:46 19,9 C 56 % 1012,8 hPa 0,0 l/m 20,9 km/h (4 Bft) S-SW 202 10,9 C 19,9 C
18.10.2012 14:51 19,8 C 55 % 1012,9 hPa 0,0 l/m 13,3 km/h (3 Bft) S-SW 202 10,5 C 19,8 C
18.10.2012 14:56 19,6 C 56 % 1012,7 hPa 0,0 l/m 14,8 km/h (3 Bft) S 180 10,6 C 19,6 C
18.10.2012 15:01 19,4 C 56 % 1012,7 hPa 0,0 l/m 6,1 km/h (2 Bft) S 180 10,4 C 19,4 C
18.10.2012 15:06 19,5 C 56 % 1012,7 hPa 0,0 l/m 5,8 km/h (2 Bft) SO 135 10,5 C 19,5 C
18.10.2012 15:11 19,5 C 56 % 1012,8 hPa 0,0 l/m 14,8 km/h (3 Bft) SW 225 10,5 C 19,5 C
18.10.2012 15:16 19,6 C 56 % 1012,8 hPa 0,0 l/m 12,6 km/h (3 Bft) S 180 10,6 C 19,6 C
18.10.2012 15:21 19,8 C 56 % 1012,6 hPa 0,0 l/m 11,2 km/h (2 Bft) W-SW 247 10,8 C 19,8 C
18.10.2012 15:26 19,8 C 56 % 1012,7 hPa 0,0 l/m 7,6 km/h (2 Bft) S 180 10,8 C 19,8 C
18.10.2012 15:31 19,9 C 56 % 1012,7 hPa 0,0 l/m 9,4 km/h (2 Bft) S-SW 202 10,9 C 19,9 C
18.10.2012 15:36 19,9 C 55 % 1012,8 hPa 0,0 l/m 11,2 km/h (2 Bft) SO 135 10,6 C 19,9 C
18.10.2012 15:41 19,8 C 55 % 1012,8 hPa 0,0 l/m 10,8 km/h (2 Bft) S 180 10,5 C 19,8 C
18.10.2012 15:46 19,9 C 56 % 1012,8 hPa 0,0 l/m 5,4 km/h (1 Bft) S-SO 157 10,9 C 19,9 C
18.10.2012 15:51 20,0 C 56 % 1012,8 hPa 0,0 l/m 2,9 km/h (1 Bft) S-SO 157 11,0 C 20,0 C
18.10.2012 15:56 20,1 C 55 % 1012,7 hPa 0,0 l/m 7,2 km/h (2 Bft) S 180 10,8 C 20,1 C
18.10.2012 16:01 20,1 C 54 % 1012,7 hPa 0,0 l/m 6,8 km/h (2 Bft) S-SO 157 10,5 C 20,1 C
18.10.2012 16:06 20,1 C 54 % 1012,8 hPa 0,0 l/m 6,5 km/h (2 Bft) S 180 10,5 C 20,1 C
18.10.2012 16:11 19,9 C 55 % 1012,8 hPa 0,0 l/m 10,8 km/h (2 Bft) S 180 10,6 C 19,9 C
18.10.2012 16:16 20,0 C 55 % 1012,8 hPa 0,0 l/m 3,2 km/h (1 Bft) S 180 10,7 C 20,0 C
18.10.2012 16:21 19,9 C 55 % 1012,8 hPa 0,0 l/m 5,8 km/h (2 Bft) S 180 10,6 C 19,9 C
18.10.2012 16:26 19,9 C 55 % 1012,8 hPa 0,0 l/m 8,6 km/h (2 Bft) S 180 10,6 C 19,9 C
18.10.2012 16:31 19,9 C 55 % 1012,9 hPa 0,0 l/m 4,7 km/h (1 Bft) S-SW 202 10,6 C 19,9 C
18.10.2012 16:36 19,9 C 55 % 1012,9 hPa 0,0 l/m 6,8 km/h (2 Bft) S 180 10,6 C 19,9 C
18.10.2012 16:41 19,9 C 55 % 1012,7 hPa 0,0 l/m 2,5 km/h (1 Bft) S-SO 157 10,6 C 19,9 C
18.10.2012 16:46 19,6 C 55 % 1012,8 hPa 0,0 l/m 6,1 km/h (2 Bft) SO 135 10,3 C 19,6 C
18.10.2012 16:51 19,5 C 56 % 1012,7 hPa 0,0 l/m 11,5 km/h (2 Bft) SO 135 10,5 C 19,5 C
18.10.2012 16:56 19,3 C 56 % 1013,0 hPa 0,0 l/m 3,2 km/h (1 Bft) S-SO 157 10,3 C 19,3 C
18.10.2012 17:01 19,2 C 57 % 1012,8 hPa 0,0 l/m 4,0 km/h (1 Bft) SO 135 10,5 C 19,2 C
18.10.2012 17:06 18,9 C 57 % 1012,9 hPa 0,0 l/m 3,6 km/h (1 Bft) S 180 10,2 C 18,9 C
18.10.2012 17:11 18,8 C 58 % 1012,8 hPa 0,0 l/m 9,4 km/h (2 Bft) S-SO 157 10,4 C 18,8 C
18.10.2012 17:16 18,6 C 59 % 1013,0 hPa 0,0 l/m 0,0 km/h (0 Bft) S 180 10,4 C 18,6 C
18.10.2012 17:21 18,5 C 59 % 1013,0 hPa 0,0 l/m 4,0 km/h (1 Bft) S 180 10,3 C 18,5 C
18.10.2012 17:26 18,3 C 59 % 1012,9 hPa 0,0 l/m 3,6 km/h (1 Bft) S 180 10,1 C 18,3 C
18.10.2012 17:31 18,0 C 60 % 1013,0 hPa 0,0 l/m 4,0 km/h (1 Bft) S-SO 157 10,1 C 18,0 C
18.10.2012 17:36 17,8 C 61 % 1012,8 hPa 0,0 l/m 4,3 km/h (1 Bft) S-SO 157 10,2 C 17,8 C
18.10.2012 17:41 17,5 C 61 % 1013,0 hPa 0,0 l/m 13,7 km/h (3 Bft) S-SO 157 9,9 C 17,5 C
18.10.2012 17:46 17,3 C 62 % 1013,1 hPa 0,0 l/m 5,0 km/h (1 Bft) S-SO 157 9,9 C 17,3 C
18.10.2012 17:51 17,1 C 63 % 1013,1 hPa 0,0 l/m 3,2 km/h (1 Bft) S-SW 202 10,0 C 17,1 C
18.10.2012 17:56 16,9 C 63 % 1013,1 hPa 0,0 l/m 4,7 km/h (1 Bft) SO 135 9,8 C 16,9 C
18.10.2012 18:01 16,7 C 64 % 1013,2 hPa 0,0 l/m 3,6 km/h (1 Bft) SO 135 9,9 C 16,7 C
18.10.2012 18:06 16,5 C 65 % 1013,0 hPa 0,0 l/m 2,9 km/h (1 Bft) SO 135 9,9 C 16,5 C
18.10.2012 18:11 16,3 C 66 % 1013,0 hPa 0,0 l/m 0,0 km/h (0 Bft) S-SO 157 9,9 C 16,3 C
18.10.2012 18:16 16,1 C 67 % 1013,2 hPa 0,0 l/m 1,4 km/h (1 Bft) O-SO 112 10,0 C 16,1 C
18.10.2012 18:21 15,8 C 67 % 1013,3 hPa 0,0 l/m 4,0 km/h (1 Bft) SO 135 9,7 C 15,8 C
18.10.2012 18:26 15,6 C 69 % 1013,2 hPa 0,0 l/m 4,7 km/h (1 Bft) S-SO 157 9,9 C 15,6 C
18.10.2012 18:31 15,3 C 69 % 1013,4 hPa 0,0 l/m 5,4 km/h (1 Bft) S-SO 157 9,6 C 15,3 C
18.10.2012 18:36 15,1 C 70 % 1013,4 hPa 0,0 l/m 9,4 km/h (2 Bft) S-SO 157 9,7 C 15,1 C
18.10.2012 18:41 14,9 C 71 % 1013,4 hPa 0,0 l/m 4,0 km/h (1 Bft) S-SO 157 9,7 C 14,9 C
18.10.2012 18:46 14,9 C 71 % 1013,2 hPa 0,0 l/m 3,2 km/h (1 Bft) S-SO 157 9,7 C 14,9 C
18.10.2012 18:51 14,9 C 72 % 1013,5 hPa 0,0 l/m 4,7 km/h (1 Bft) O-SO 112 9,9 C 14,9 C
18.10.2012 18:56 14,9 C 72 % 1013,5 hPa 0,0 l/m 6,1 km/h (2 Bft) S-SO 157 9,9 C 14,9 C
18.10.2012 19:01 14,9 C 72 % 1013,5 hPa 0,0 l/m 4,0 km/h (1 Bft) S-SO 157 9,9 C 14,9 C
18.10.2012 19:06 14,9 C 72 % 1013,5 hPa 0,0 l/m 5,8 km/h (2 Bft) S-SO 157 9,9 C 14,9 C
18.10.2012 19:11 14,8 C 72 % 1013,4 hPa 0,0 l/m 6,1 km/h (2 Bft) S-SO 157 9,8 C 14,8 C
18.10.2012 19:16 14,8 C 72 % 1013,3 hPa 0,0 l/m 6,1 km/h (2 Bft) S 180 9,8 C 14,8 C
18.10.2012 19:21 14,8 C 73 % 1013,5 hPa 0,0 l/m 11,2 km/h (2 Bft) S 180 10,0 C 14,8 C
18.10.2012 19:26 14,8 C 73 % 1013,4 hPa 0,0 l/m 9,7 km/h (2 Bft) S-SW 202 10,0 C 14,8 C
18.10.2012 19:31 14,8 C 73 % 1013,4 hPa 0,0 l/m 4,7 km/h (1 Bft) SO 135 10,0 C 14,8 C
18.10.2012 19:36 14,9 C 73 % 1013,3 hPa 0,0 l/m 5,4 km/h (1 Bft) S-SW 202 10,1 C 14,9 C
18.10.2012 19:41 14,9 C 73 % 1013,4 hPa 0,0 l/m 9,4 km/h (2 Bft) S-SO 157 10,1 C 14,9 C
18.10.2012 19:46 14,9 C 73 % 1013,4 hPa 0,0 l/m 8,6 km/h (2 Bft) S-SO 157 10,1 C 14,9 C
18.10.2012 19:51 14,9 C 73 % 1013,5 hPa 0,0 l/m 13,3 km/h (3 Bft) S 180 10,1 C 14,9 C
18.10.2012 19:56 14,9 C 73 % 1013,6 hPa 0,0 l/m 9,7 km/h (2 Bft) SO 135 10,1 C 14,9 C
18.10.2012 20:01 14,9 C 73 % 1013,8 hPa 0,0 l/m 15,1 km/h (3 Bft) S-SO 157 10,1 C 14,9 C
18.10.2012 20:06 14,9 C 73 % 1013,8 hPa 0,0 l/m 8,3 km/h (2 Bft) S-SO 157 10,1 C 14,9 C
18.10.2012 20:11 14,9 C 73 % 1013,8 hPa 0,0 l/m 5,8 km/h (2 Bft) SO 135 10,1 C 14,9 C
18.10.2012 20:16 14,9 C 73 % 1013,8 hPa 0,0 l/m 4,3 km/h (1 Bft) S-SW 202 10,1 C 14,9 C
18.10.2012 20:21 14,9 C 73 % 1013,9 hPa 0,0 l/m 2,2 km/h (1 Bft) S-SO 157 10,1 C 14,9 C
18.10.2012 20:26 14,9 C 73 % 1013,8 hPa 0,0 l/m 4,0 km/h (1 Bft) SO 135 10,1 C 14,9 C
18.10.2012 20:31 14,8 C 73 % 1013,8 hPa 0,0 l/m 9,0 km/h (2 Bft) S-SO 157 10,0 C 14,8 C
18.10.2012 20:36 14,6 C 73 % 1014,0 hPa 0,0 l/m 6,8 km/h (2 Bft) S 180 9,8 C 14,6 C
18.10.2012 20:41 14,6 C 74 % 1013,8 hPa 0,0 l/m 5,4 km/h (1 Bft) S-SO 157 10,0 C 14,6 C
18.10.2012 20:46 14,4 C 74 % 1014,0 hPa 0,0 l/m 4,0 km/h (1 Bft) S-SO 157 9,8 C 14,4 C
18.10.2012 20:51 14,4 C 74 % 1013,8 hPa 0,0 l/m 5,8 km/h (2 Bft) S-SW 202 9,8 C 14,4 C
18.10.2012 20:56 14,3 C 74 % 1013,8 hPa 0,0 l/m 3,6 km/h (1 Bft) SO 135 9,7 C 14,3 C
18.10.2012 21:01 14,2 C 75 % 1013,9 hPa 0,0 l/m 6,1 km/h (2 Bft) SO 135 9,8 C 14,2 C
18.10.2012 21:06 14,2 C 75 % 1014,0 hPa 0,0 l/m 6,1 km/h (2 Bft) S 180 9,8 C 14,2 C
18.10.2012 21:11 14,2 C 75 % 1014,0 hPa 0,0 l/m 6,1 km/h (2 Bft) SO 135 9,8 C 14,2 C
18.10.2012 21:16 14,1 C 75 % 1014,1 hPa 0,0 l/m 1,8 km/h (1 Bft) S-SO 157 9,7 C 14,1 C
18.10.2012 21:21 14,1 C 75 % 1014,2 hPa 0,0 l/m 6,1 km/h (2 Bft) SO 135 9,7 C 14,1 C
18.10.2012 21:26 14,0 C 75 % 1014,3 hPa 0,0 l/m 1,1 km/h (1 Bft) SO 135 9,6 C 14,0 C
18.10.2012 21:31 13,9 C 75 % 1014,4 hPa 0,0 l/m 2,2 km/h (1 Bft) S 180 9,5 C 13,9 C
18.10.2012 21:36 13,8 C 76 % 1014,4 hPa 0,0 l/m 1,4 km/h (1 Bft) S-SO 157 9,6 C 13,8 C
18.10.2012 21:41 13,6 C 76 % 1014,5 hPa 0,0 l/m 8,3 km/h (2 Bft) S-SW 202 9,4 C 13,6 C
18.10.2012 21:46 13,5 C 76 % 1014,5 hPa 0,0 l/m 1,4 km/h (1 Bft) S-SO 157 9,4 C 13,5 C
18.10.2012 21:51 13,4 C 76 % 1014,5 hPa 0,0 l/m 2,9 km/h (1 Bft) S-SO 157 9,3 C 13,4 C
18.10.2012 21:56 13,4 C 77 % 1014,5 hPa 0,0 l/m 2,5 km/h (1 Bft) S-SW 202 9,5 C 13,4 C
18.10.2012 22:01 13,3 C 78 % 1014,5 hPa 0,0 l/m 3,6 km/h (1 Bft) SO 135 9,5 C 13,3 C
18.10.2012 22:06 13,2 C 78 % 1014,6 hPa 0,0 l/m 1,1 km/h (1 Bft) S 180 9,4 C 13,2 C
18.10.2012 22:11 13,1 C 77 % 1014,7 hPa 0,0 l/m 3,2 km/h (1 Bft) S 180 9,2 C 13,1 C
18.10.2012 22:16 13,0 C 78 % 1014,8 hPa 0,0 l/m 2,2 km/h (1 Bft) S-SW 202 9,3 C 13,0 C
18.10.2012 22:21 12,9 C 78 % 1014,6 hPa 0,0 l/m 8,3 km/h (2 Bft) S-SO 157 9,2 C 12,9 C
18.10.2012 22:26 12,9 C 79 % 1014,6 hPa 0,0 l/m 5,4 km/h (1 Bft) S-SW 202 9,3 C 12,9 C
18.10.2012 22:31 12,8 C 79 % 1014,7 hPa 0,0 l/m 8,6 km/h (2 Bft) S-SW 202 9,2 C 12,8 C
18.10.2012 22:36 12,7 C 79 % 1014,7 hPa 0,0 l/m 0,0 km/h (0 Bft) S-SW 202 9,2 C 12,7 C
18.10.2012 22:41 12,6 C 79 % 1014,8 hPa 0,0 l/m 6,8 km/h (2 Bft) S 180 9,1 C 12,6 C
18.10.2012 22:46 12,6 C 79 % 1014,9 hPa 0,0 l/m 1,4 km/h (1 Bft) S-SW 202 9,1 C 12,6 C
18.10.2012 22:51 12,6 C 79 % 1014,6 hPa 0,0 l/m 7,2 km/h (2 Bft) SO 135 9,1 C 12,6 C
18.10.2012 22:56 12,6 C 79 % 1014,6 hPa 0,0 l/m 8,3 km/h (2 Bft) SO 135 9,1 C 12,6 C
18.10.2012 23:01 12,6 C 79 % 1014,6 hPa 0,0 l/m 6,5 km/h (2 Bft) SO 135 9,1 C 12,6 C
18.10.2012 23:06 12,5 C 79 % 1014,7 hPa 0,0 l/m 3,2 km/h (1 Bft) S-SO 157 9,0 C 12,5 C
18.10.2012 23:11 12,5 C 79 % 1014,7 hPa 0,0 l/m 2,9 km/h (1 Bft) S 180 9,0 C 12,5 C
18.10.2012 23:16 12,4 C 79 % 1014,8 hPa 0,0 l/m 5,4 km/h (1 Bft) S-SW 202 8,9 C 12,4 C
18.10.2012 23:21 12,4 C 80 % 1014,7 hPa 0,0 l/m 4,7 km/h (1 Bft) S-SO 157 9,0 C 12,4 C
18.10.2012 23:26 12,4 C 80 % 1014,7 hPa 0,0 l/m 1,1 km/h (1 Bft) O-SO 112 9,0 C 12,4 C
18.10.2012 23:31 12,3 C 80 % 1014,6 hPa 0,0 l/m 4,3 km/h (1 Bft) S-SO 157 8,9 C 12,3 C
18.10.2012 23:36 12,3 C 80 % 1014,7 hPa 0,0 l/m 1,4 km/h (1 Bft) SO 135 8,9 C 12,3 C
18.10.2012 23:41 12,1 C 80 % 1014,6 hPa 0,0 l/m 3,6 km/h (1 Bft) S-SO 157 8,8 C 12,1 C
18.10.2012 23:46 12,0 C 80 % 1014,7 hPa 0,0 l/m 5,0 km/h (1 Bft) SO 135 8,7 C 12,0 C
18.10.2012 23:51 11,9 C 80 % 1014,8 hPa 0,0 l/m 5,8 km/h (2 Bft) S 180 8,6 C 11,9 C
18.10.2012 23:56 11,9 C 80 % 1014,9 hPa 0,0 l/m 4,7 km/h (1 Bft) S 180 8,6 C 11,9 C
_ Min-Zeit 07:46 16:01 05:51 - 00:21 - - 07:46 07:46
Minimum _ 10,4 C 54 % 1012,2 hPa - 0,0 km/h (0 Bft) - - 7,1 C 10,4 C
_ Max-Zeit 15:56 08:06 22:46 00:01 14:46 - - 14:21 15:56
Maximum _ 20,1 C 81 % 1014,9 hPa 0,0 l/m 20,9 km/h
S-SW (4 Bft)
- - 11,3 C 20,1 C
Durchschnitt _ 14,5 C 72 % 1013,2 hPa #0,0 l/m 5,7 km/h (1 Bft) S-SO - 9,3 C 14,5 C
(c) by David Heller